Paolana

Reggiomed – Paolana 3-0, i reggini ritrovano il sorriso

La Reggiomediterranea interrompe il suo periodo di crisi, superando la Paolana tra le mura amiche. I reggini si impongono con un secco 3 a 0, ai danni di una Paolana che non è riuscita...

Reggiomed, torna a ruggire

In casa Reggiomediterranea c'è tanta voglia di riscatto. Gli amaranto nello scontro diretto casalingo contro la Paolana, sono chiamati ad interrompere la striscia di sconfitte che dura da quattro turni. In questo rush finale,...

Il Gallico Catona gioca bene ma perde contro la Paolana

In attesa del responso relativo alla gara di Scalea, il Gallico Catona pur adottando un buon gioco, lascia la posta alla Paolana e domenica c’è il fanalino di coda Roccella al Lo Presti. Gioca bene...

Gallico Catona a Paola per sfatare un “tabù”

Peppe Giovinazzo ha messo “sotto torchio” con il suo staff tecnico i giocatori del Gallico Catona, si lavora di buzzo buono, morale “risollevato” dopo “l’essenziale” vittoria contro il Soriano. La classifica va rimpinguata e ci...

Paolana-Reggiomed 4-1, secondo tempo da incubo per i reggini

La ReggioMediterranea torna in campo dopo due settimane di stop, a causa di alcuni casi legati al COVID-19 che ha costretto gli amaranto a dover seguire le disposizioni previste dal protocollo. Quest'oggi a Paola...
DataCasaRisultatiTrasfertaOra
2022-05-01 14:30:0001/05/221 - 1 14:30:0014:30
2022-04-24 14:30:0024/04/223 - 1 14:30:0014:30
2022-04-10 14:30:0010/04/223 - 0 14:30:0014:30
2022-04-03 14:30:0003/04/220 - 3 14:30:0014:30
2022-03-27 14:30:0027/03/220 - 1 14:30:0014:30
2022-03-20 14:30:0020/03/222 - 0 14:30:0014:30
2022-03-13 14:30:0013/03/221 - 1 14:30:0014:30
2022-03-06 14:30:0006/03/223 - 1 14:30:0014:30
2022-03-02 14:30:0002/03/222 - 3 14:30:0014:30
2022-02-27 14:30:0027/02/221 - 2 14:30:0014:30
2022-02-20 14:30:0020/02/221 - 0 14:30:0014:30
2022-02-13 14:30:0013/02/221 - 1 14:30:0014:30
2022-02-06 14:30:0006/02/221 - 2 14:30:0014:30
2022-01-30 14:30:0030/01/220 - 0 14:30:0014:30
2022-01-23 14:30:0023/01/221 - 0 14:30:0014:30
2022-01-05 14:30:0005/01/221 - 1 14:30:0014:30
2021-12-19 14:30:0019/12/210 - 1 14:30:0014:30
2021-12-12 14:30:0012/12/214 - 1 14:30:0014:30
2021-12-05 14:30:0005/12/210 - 0 14:30:0014:30
2021-11-28 14:30:0028/11/210 - 0 14:30:0014:30
2021-11-21 14:30:0021/11/211 - 2 14:30:0014:30
2021-11-14 14:30:0014/11/211 - 3 14:30:0014:30
2021-11-07 14:30:0007/11/211 - 2 14:30:0014:30
2021-10-31 14:30:0031/10/211 - 2 14:30:0014:30
2021-10-24 14:30:0024/10/213 - 1 14:30:0014:30
2021-10-17 14:30:0017/10/210 - 1 14:30:0014:30
2021-10-10 14:30:0010/10/210 - 0 14:30:0014:30
2021-10-03 14:30:0003/10/210 - 0 14:30:0014:30
2021-09-26 15:30:0026/09/211 - 0 15:30:0015:30
2021-09-19 15:30:0019/09/211 - 1 15:30:0015:30
2021-02-21 15:00:0021/02/21- 15:00:0015:00
2021-02-14 15:00:0014/02/21- 15:00:0015:00
2021-02-07 15:00:0007/02/21- 15:00:0015:00
2021-01-24 15:00:0024/01/21- 15:00:0015:00
2021-01-17 15:00:0017/01/21- 15:00:0015:00
2021-01-10 15:00:0010/01/21- 15:00:0015:00
2021-01-06 15:00:0006/01/21- 15:00:0015:00
2020-12-20 15:00:0020/12/20- 15:00:0015:00
2020-12-13 15:00:0013/12/20- 15:00:0015:00
2020-12-06 15:00:0006/12/20- 15:00:0015:00
2020-11-29 15:00:0029/11/20- 15:00:0015:00
2020-11-25 15:00:0025/11/20- 15:00:0015:00
2020-11-22 15:00:0022/11/20- 15:00:0015:00
2020-11-15 15:00:0015/11/20- 15:00:0015:00
2020-11-08 15:00:0008/11/20- 15:00:0015:00
2020-11-01 15:00:0001/11/20- 15:00:0015:00
2020-10-25 15:00:0025/10/201 - 1 15:00:0015:00
2020-10-21 15:00:0021/10/200 - 1 15:00:0015:00
2020-10-18 15:00:0018/10/20- 15:00:0015:00
2020-10-04 15:00:0004/10/201 - 1 15:00:0015:00
2020-09-27 15:00:0027/09/200 - 0 15:00:0015:00
2020-04-19 15:30:0019/04/20- 15:30:0015:30
2020-04-05 15:30:0005/04/20- 15:30:0015:30
2020-03-29 15:30:0029/03/20- 15:30:0015:30
2020-03-22 14:30:0022/03/20- 14:30:0014:30
2020-03-15 14:30:0015/03/20- 14:30:0014:30
2020-03-08 14:30:0008/03/20- 14:30:0014:30
2020-03-01 14:30:0001/03/201 - 2 14:30:0014:30
2020-02-23 14:30:0023/02/203 - 0 14:30:0014:30
2020-02-16 14:30:0016/02/201 - 1 14:30:0014:30
2020-02-09 14:30:0009/02/200 - 0 14:30:0014:30
2020-02-01 14:30:0001/02/200 - 0 14:30:0014:30
2020-01-26 14:30:0026/01/202 - 0 14:30:0014:30
2020-01-19 14:30:0019/01/202 - 1 14:30:0014:30
2020-01-12 14:30:0012/01/203 - 1 14:30:0014:30
2020-01-05 14:30:0005/01/202 - 1 14:30:0014:30
2019-12-15 14:30:0015/12/190 - 0 14:30:0014:30
2019-12-08 14:30:0008/12/191 - 0 14:30:0014:30
2019-12-01 14:30:0001/12/190 - 1 14:30:0014:30
2019-11-24 14:30:0024/11/190 - 2 14:30:0014:30
2019-11-17 14:30:0017/11/191 - 0 14:30:0014:30
2019-11-10 14:30:0010/11/192 - 4 14:30:0014:30
2019-11-03 14:30:0003/11/192 - 0 14:30:0014:30
2019-10-27 14:30:0027/10/192 - 0 14:30:0014:30
2019-10-20 15:30:0020/10/190 - 3 15:30:0015:30
2019-10-13 15:30:0013/10/193 - 2 15:30:0015:30
2019-10-06 15:30:0006/10/190 - 1 15:30:0015:30
2019-09-29 15:30:0029/09/193 - 0 15:30:0015:30
2019-09-22 15:30:0022/09/191 - 1 15:30:0015:30
2019-09-15 15:30:0015/09/193 - 1 15:30:0015:30
2019-09-08 15:30:0008/09/191 - 0 15:30:0015:30
2019-04-28 16:00:0028/04/195 - 3 16:00:0016:00
2019-04-07 16:00:0007/04/190 - 0 16:00:0016:00
2019-03-31 15:00:0031/03/193 - 1 15:00:0015:00
2019-03-24 15:00:0024/03/191 - 3 15:00:0015:00
2019-03-17 15:00:0017/03/193 - 1 15:00:0015:00
2019-03-10 15:00:0010/03/192 - 2 15:00:0015:00
2019-03-03 15:00:0003/03/192 - 1 15:00:0015:00
2019-02-24 14:30:0024/02/191 - 0 14:30:0014:30
2019-02-17 14:30:0017/02/191 - 0 14:30:0014:30
2019-02-10 14:30:0010/02/191 - 1 14:30:0014:30
2019-02-03 14:30:0003/02/191 - 2 14:30:0014:30
2019-01-27 14:30:0027/01/191 - 1 14:30:0014:30
2019-01-20 14:30:0020/01/192 - 0 14:30:0014:30
2019-01-11 14:30:0011/01/191 - 0 14:30:0014:30
2019-01-06 14:30:0006/01/193 - 0 14:30:0014:30
2018-12-16 14:30:0016/12/182 - 0 14:30:0014:30
2018-12-09 14:30:0009/12/180 - 0 14:30:0014:30
2018-12-02 14:30:0002/12/181 - 0 14:30:0014:30
2018-11-25 14:30:0025/11/182 - 0 14:30:0014:30
2018-11-18 14:30:0018/11/180 - 3 14:30:0014:30
2018-11-11 14:30:0011/11/183 - 0 14:30:0014:30
2018-11-04 14:30:0004/11/182 - 1 14:30:0014:30
2018-10-28 14:30:0028/10/185 - 0 14:30:0014:30
2018-10-21 15:30:0021/10/180 - 0 15:30:0015:30
2018-10-14 15:30:0014/10/182 - 0 15:30:0015:30
2018-10-07 15:30:0007/10/182 - 0 15:30:0015:30
2018-09-30 15:30:0030/09/182 - 0 15:30:0015:30
2018-09-23 15:30:0023/09/181 - 2 15:30:0015:30
2018-09-16 15:30:0016/09/181 - 1 15:30:0015:30
2018-09-09 15:30:0009/09/182 - 0 15:30:0015:30
2018-04-29 16:00:0029/04/182 - 2 16:00:0016:00
2018-04-22 16:00:0022/04/181 - 2 16:00:0016:00
2018-04-15 16:00:0015/04/182 - 1 16:00:0016:00
2018-04-08 16:00:0008/04/180 - 2 16:00:0016:00
2018-03-18 15:00:0018/03/182 - 1 15:00:0015:00
2018-03-11 15:00:0011/03/181 - 0 15:00:0015:00
2018-03-04 15:00:0004/03/182 - 1 15:00:0015:00
2018-02-25 14:30:0025/02/183 - 1 14:30:0014:30
2018-02-18 14:30:0018/02/180 - 0 14:30:0014:30
2018-02-11 14:30:0011/02/184 - 0 14:30:0014:30
2018-02-04 14:30:0004/02/181 - 4 14:30:0014:30
2018-01-28 14:30:0028/01/182 - 2 14:30:0014:30
2018-01-21 14:30:0021/01/181 - 0 14:30:0014:30
2018-01-14 14:30:0014/01/180 - 4 14:30:0014:30
2018-01-07 14:30:0007/01/181 - 1 14:30:0014:30
2017-12-17 14:30:0017/12/172 - 0 14:30:0014:30
2017-12-10 14:30:0010/12/171 - 2 14:30:0014:30
2017-12-03 14:30:0003/12/171 - 1 14:30:0014:30
2017-11-26 14:30:0026/11/170 - 0 14:30:0014:30
2017-11-19 14:30:0019/11/171 - 0 14:30:0014:30
2017-11-12 14:30:0012/11/171 - 0 14:30:0014:30
2017-11-04 14:30:0004/11/172 - 1 14:30:0014:30
2017-10-29 14:30:0029/10/173 - 2 14:30:0014:30
2017-10-22 15:30:0022/10/170 - 2 15:30:0015:30
2017-10-15 15:30:0015/10/172 - 1 15:30:0015:30
2017-10-08 15:30:0008/10/170 - 1 15:30:0015:30
2017-10-01 15:30:0001/10/173 - 0 15:30:0015:30
2017-09-24 15:30:0024/09/172 - 1 15:30:0015:30
2017-09-17 15:30:0017/09/171 - 0 15:30:0015:30
2017-09-10 15:30:0010/09/171 - 0 15:30:0015:30